Location: Baggett Branch
(32.6074°N, 97.0167°W)
Time: 03:46:11
(UTC+00:00)

ISS - Visible Passes

Search period start: 15 April 2026 00:00
Search period end: 25 April 2026 00:00
Orbit: 415 x 424 km, 51.6° (Epoch: 14 April)

Date Brightness Start Highest point End Pass type
(mag) Time Alt. Az. Time Alt. Az. Time Alt. Az.
15 Apr -0.9 10:19:31 10° SE 10:20:30 11° SE 10:21:29 10° ESE visible
16 Apr -3.7 11:06:47 14° SW 11:09:33 82° SE 11:12:56 10° NE visible
17 Apr -2.8 10:21:37 36° SSE 10:22:13 40° SE 10:25:24 10° ENE visible
18 Apr -1.0 09:36:20 16° E 09:36:20 16° E 09:37:33 10° ENE visible
18 Apr -2.4 11:09:19 14° W 11:11:37 28° NW 11:14:34 10° NNE visible
19 Apr -3.4 10:23:55 48° NW 10:24:08 49° NW 10:27:25 10° NE visible
20 Apr -1.6 09:38:26 26° NE 09:38:26 26° NE 09:40:03 10° NE visible
20 Apr -1.2 11:12:42 10° NW 11:13:54 11° NNW 11:15:06 10° N visible
21 Apr -1.7 10:25:49 17° NW 10:26:14 17° NNW 10:28:34 10° N visible
22 Apr -1.3 09:40:10 19° N 09:40:10 19° N 09:41:35 10° NNE visible
24 Apr -0.8 09:41:37 11° NNW 09:41:37 11° NNW 09:41:58 10° N visible
